Theta_e
340 340 341 347 348 348 348 347 347 348 348 348 347 346 345 344 344 345 344 344 344 348 348 348 348 348 348 348 348 348 348 346 345 344 344 342 340 339 340 342 341 342 342 342 342 343 343 343 343 342 341 340 340 341 342 341 341 341 342 340 340 338 337 337 336 336 336 335 335 335 336 337 339 338 337 336 335 335 334 334 332 331 328 329 333
340 341 341 345 348 348 348 347 348 348 348 347 347 345 344 344 344 343 342 342 342 343 346 347 348 348 347 347 348 347 347 346 347 347 345 344 342 341 341 340 341 341 342 341 341 341 341 341 341 341 340 340 340 341 341 341 341 340 341 341 340 338 336 335 334 335 335 335 337 336 335 335 335 337 337 336 335 334 334 333 332 330 329 332 332
342 343 342 345 347 347 347 348 349 349 348 348 347 344 344 343 342 342 342 342 342 341 342 346 347 347 346 346 346 346 345 344 344 346 345 344 343 342 342 341 342 342 342 341 341 340 340 340 340 340 340 340 340 340 340 340 340 340 340 340 340 339 335 334 333 333 334 334 335 334 334 336 336 335 335 336 336 335 334 333 331 332 329 333 335
342 343 342 345 347 348 348 348 348 348 347 346 345 344 344 342 343 343 343 342 342 343 341 341 344 344 345 345 345 345 344 345 347 347 344 342 340 339 338 338 339 339 339 340 340 339 338 339 340 340 339 339 340 339 340 340 340 340 339 339 339 338 335 334 334 334 334 334 334 331 330 323 331 335 335 336 336 335 335 332 332 332 332 333 334
342 343 342 343 345 346 348 348 348 347 347 346 345 344 342 341 343 341 340 341 341 341 341 342 342 343 343 343 343 344 344 343 344 345 345 344 341 338 338 338 339 339 340 340 340 340 339 339 340 339 339 339 339 339 339 340 340 339 339 337 337 337 336 334 334 334 334 334 333 329 323 324 326 335 335 336 335 334 335 333 332 331 331 330 332
342 341 342 343 344 345 347 348 347 347 346 345 344 343 342 343 342 341 341 342 342 341 341 342 342 342 343 343 343 345 344 344 344 344 343 341 340 341 341 340 340 341 341 341 341 340 339 339 339 339 339 338 338 339 339 339 340 338 337 335 335 337 335 335 334 334 333 331 330 325 323 324 326 330 336 336 335 335 334 333 333 333 331 331 331
342 341 342 342 343 344 346 348 347 346 345 345 343 342 343 343 342 342 342 342 342 343 343 343 342 342 342 342 342 343 344 343 343 343 343 343 342 343 343 342 342 341 340 340 340 340 339 338 339 338 338 338 338 339 339 339 339 339 337 338 338 336 336 336 335 334 332 327 322 323 324 326 326 326 337 336 335 335 334 335 334 333 333 331 330
342 342 342 341 342 344 346 348 348 346 346 345 343 343 343 343 343 343 343 343 343 343 343 342 341 341 342 343 343 342 342 342 343 343 343 345 346 346 344 341 340 339 338 339 339 341 341 341 339 338 338 339 338 338 339 339 339 338 338 337 337 335 336 335 335 334 332 326 325 326 328 328 330 328 336 336 336 335 335 335 334 334 333 333 333
340 341 341 340 342 344 345 347 347 347 346 345 344 344 344 343 344 344 343 341 340 341 341 341 341 341 342 341 340 341 340 341 342 342 342 343 344 344 344 343 341 340 339 339 339 341 341 340 339 338 338 338 338 338 338 338 338 338 338 338 337 336 335 334 333 330 327 325 325 327 329 329 331 332 336 336 336 335 334 333 335 335 334 335 334
340 340 340 340 341 342 346 347 347 347 346 344 343 344 344 343 342 342 341 339 339 339 340 339 340 341 340 339 339 338 341 343 344 343 343 343 343 343 342 342 340 339 339 338 339 340 339 338 338 337 337 338 337 337 338 338 338 338 337 337 337 335 333 332 330 328 322 322 322 323 330 335 329 332 337 339 338 336 336 336 337 337 336 336 333
338 339 339 340 341 342 347 348 347 347 345 343 342 342 341 342 342 341 339 337 339 338 338 339 339 340 340 341 341 341 340 340 340 341 342 342 343 343 342 341 341 340 340 340 340 339 339 339 338 337 337 337 336 336 337 336 337 337 337 337 337 336 333 330 326 321 321 321 321 322 328 334 328 331 339 339 339 338 337 338 337 337 337 336 333
338 339 339 340 345 341 347 347 347 346 344 343 342 341 341 341 340 339 338 337 337 339 340 341 342 342 342 342 341 341 341 340 342 342 342 342 341 342 342 342 341 340 338 337 336 337 339 339 338 337 337 336 335 335 335 335 336 336 336 336 336 334 332 329 323 320 319 319 320 322 323 326 328 333 339 339 340 338 337 337 338 337 338 338 335
339 340 340 340 340 341 344 345 345 346 346 344 342 341 341 340 339 339 338 339 340 343 343 343 342 342 341 341 340 340 339 339 340 341 342 341 341 341 341 341 341 340 340 340 339 339 338 339 339 337 336 335 334 334 334 334 335 335 334 335 335 334 331 328 321 320 319 318 319 319 321 324 327 336 337 339 339 339 338 337 338 338 337 337 337
339 341 341 341 341 345 340 342 344 345 346 344 343 342 340 340 340 340 342 343 343 343 343 341 340 340 339 339 338 337 337 338 339 339 340 341 340 340 340 340 340 339 339 338 337 337 337 338 338 337 336 335 334 333 333 333 334 333 334 334 332 332 329 326 324 317 318 317 319 320 319 325 327 334 336 338 339 338 338 337 337 337 336 336 336
339 341 341 340 341 341 342 339 341 341 343 343 343 343 342 341 343 343 343 342 342 341 340 340 339 338 338 337 336 336 336 336 338 338 339 339 339 340 339 339 338 338 338 338 338 337 336 337 337 336 335 333 333 332 332 333 333 333 333 332 333 330 327 320 320 317 318 319 318 319 319 322 335 334 334 337 338 338 337 337 336 336 335 335 335
340 340 340 338 339 339 339 342 335 336 339 341 341 341 344 344 343 342 341 341 341 340 339 339 338 337 336 336 336 337 337 337 338 338 338 337 338 338 338 337 337 337 337 336 337 336 336 335 336 335 333 333 332 332 332 331 331 331 331 334 330 329 326 323 319 316 315 316 317 320 320 323 336 334 334 335 337 337 336 336 335 336 335 335 335
339 339 339 338 337 337 338 338 335 332 332 335 337 339 342 343 342 342 342 342 340 339 338 337 337 336 337 338 338 338 338 337 337 337 336 336 336 337 336 336 336 336 336 336 336 336 336 335 334 333 333 332 331 332 332 331 331 331 331 330 329 327 325 323 318 316 317 319 319 320 321 324 335 334 335 338 337 336 335 335 335 336 335 337 337
338 339 338 338 336 335 336 334 333 333 333 333 333 338 340 341 341 340 341 340 340 339 339 339 338 339 339 338 338 338 338 338 338 339 338 337 338 337 336 336 335 335 334 335 334 335 334 334 333 332 332 331 331 331 332 331 332 330 331 330 328 325 325 323 316 316 318 322 318 321 323 333 335 334 335 337 337 336 335 335 335 336 336 336 336
337 338 338 338 336 334 334 333 332 332 333 332 331 334 335 337 338 338 339 339 339 339 339 337 338 337 336 335 334 333 332 333 334 334 333 334 334 335 335 334 334 334 334 333 333 333 333 332 332 332 331 332 332 332 332 332 332 332 331 328 325 323 322 320 315 315 316 318 319 320 323 334 333 333 336 337 336 335 336 336 336 336 336 336 335
335 337 338 337 335 333 332 331 331 331 331 331 331 331 332 332 335 336 336 337 337 336 335 334 333 330 330 329 327 325 324 324 324 326 329 330 331 328 333 334 334 334 334 333 332 332 332 332 332 332 331 332 333 332 329 332 331 331 330 327 322 321 316 316 315 315 316 318 319 321 330 334 334 334 335 337 335 336 335 335 335 336 335 334 334
335 336 337 337 335 333 332 330 330 331 331 331 330 330 331 331 331 332 333 333 333 334 333 327 325 324 323 322 322 323 323 324 325 325 325 324 323 326 333 334 333 334 333 332 332 332 332 331 331 331 330 331 324 323 323 326 328 329 329 325 318 315 314 316 316 316 315 315 319 319 332 334 333 334 335 336 335 335 334 334 336 334 332 332 334
332 334 335 336 336 333 332 330 329 330 330 331 331 331 331 332 332 333 332 330 328 327 327 327 327 321 320 320 322 323 323 323 324 326 325 326 324 323 327 331 333 332 333 333 332 332 332 331 331 330 332 332 323 316 315 320 323 325 324 318 314 313 313 315 315 314 314 315 318 325 333 332 333 335 335 335 335 335 334 334 335 332 331 333 333
329 332 333 336 335 333 333 331 330 330 330 330 330 330 330 332 332 333 332 328 329 327 326 326 322 321 320 317 319 321 321 323 323 323 323 321 323 322 323 326 327 327 329 331 332 332 332 332 331 331 331 326 319 316 315 314 315 319 317 314 314 314 315 316 315 315 314 315 316 328 332 331 331 333 334 335 333 331 332 333 332 330 331 331 332
327 329 332 335 335 333 333 331 330 330 330 329 329 329 328 329 330 331 331 330 328 325 324 322 323 321 320 319 319 317 318 321 324 324 322 320 320 319 320 320 321 320 319 319 321 327 330 332 331 331 326 317 316 315 315 314 314 313 313 314 314 314 316 315 316 314 313 316 317 327 331 331 331 331 333 333 329 327 332 331 330 331 330 330 331
323 326 330 334 334 333 333 332 330 330 329 328 328 328 327 324 328 329 329 330 327 324 324 323 322 321 319 321 319 319 322 323 322 319 318 318 318 318 317 317 317 315 314 315 313 315 316 315 314 315 313 313 314 315 314 315 314 315 314 313 313 316 319 317 314 312 312 312 317 325 329 329 330 330 332 332 329 328 330 330 330 329 329 329 329
322 323 327 331 332 333 333 332 331 330 329 328 329 328 327 325 325 326 327 328 326 324 323 323 322 321 320 321 320 320 320 321 320 317 317 317 317 317 317 317 316 315 315 314 314 315 313 312 312 314 316 318 318 319 317 317 317 314 315 315 313 315 318 317 315 313 311 311 315 323 324 324 327 330 330 329 329 328 328 326 327 327 327 326 327
321 321 325 328 331 332 332 332 331 330 329 329 329 327 326 326 325 324 324 324 324 323 322 321 322 320 320 319 319 318 318 318 317 315 316 316 317 317 316 316 315 315 316 314 314 315 315 313 313 314 319 319 320 319 321 323 321 318 316 317 317 317 319 317 313 311 309 312 316 319 320 322 325 327 328 328 328 328 328 327 327 328 327 327 326
321 321 321 325 328 330 331 331 331 330 329 328 327 326 325 325 324 323 323 323 322 322 321 320 321 319 318 319 320 319 318 314 314 314 314 314 316 316 314 315 314 314 317 314 313 313 315 313 313 314 318 320 321 320 319 320 320 318 318 317 317 319 319 316 313 311 309 310 313 316 319 322 324 324 326 328 329 329 328 327 327 327 328 326 326
321 321 321 322 326 326 327 330 330 330 329 328 326 325 324 324 323 323 322 322 321 321 322 320 320 319 318 318 319 318 316 317 315 315 314 316 316 315 314 314 315 316 315 314 314 315 315 313 314 315 317 317 317 318 314 316 318 317 319 318 315 319 320 316 312 310 309 309 313 314 318 321 322 323 325 327 328 328 328 328 328 326 325 325 325
322 322 321 322 324 324 325 329 330 330 329 326 325 323 323 323 323 322 322 319 321 321 319 318 320 320 318 318 319 319 318 317 316 314 316 316 315 315 316 316 316 317 314 316 315 314 314 313 314 314 314 312 315 316 315 317 316 316 317 316 314 319 318 315 312 310 310 310 311 311 315 319 321 323 325 326 326 327 327 327 327 325 325 325 324
322 322 322 322 323 323 324 327 329 326 327 325 323 323 322 323 322 323 321 320 321 320 318 319 319 319 320 318 318 318 318 317 317 317 316 316 315 315 316 316 315 316 316 318 313 315 313 315 316 314 313 314 313 312 316 317 314 315 314 313 315 316 316 314 312 311 311 311 311 308 310 316 320 322 324 325 326 326 326 326 326 325 325 324 322
321 321 323 323 323 323 324 325 326 325 324 323 321 322 321 322 322 322 321 321 320 319 318 318 318 319 319 319 318 317 316 316 317 317 317 316 315 315 316 315 316 316 316 317 316 316 316 316 313 311 312 314 314 314 313 315 317 318 315 316 316 318 318 316 314 312 310 309 310 306 306 308 314 317 322 323 324 324 325 325 325 324 323 322 322
322 323 323 322 322 323 324 324 325 323 324 322 321 322 321 322 321 321 320 320 320 319 318 318 319 320 320 320 319 319 317 317 317 318 316 316 316 316 315 317 318 318 317 317 316 316 314 312 314 315 315 315 316 318 318 314 317 314 312 314 318 316 315 315 313 312 310 310 309 305 304 302 302 310 314 319 322 323 323 322 322 321 320 320 321
322 323 323 322 324 325 325 324 324 323 323 323 322 321 321 321 322 321 320 320 319 319 319 318 319 319 320 320 320 319 318 318 318 317 317 316 317 317 318 318 317 317 317 317 316 316 316 314 313 313 315 314 315 315 313 311 315 312 312 316 317 317 315 314 311 310 309 309 308 304 303 301 300 300 304 312 317 320 320 321 321 321 321 320 320
322 322 322 323 323 324 325 324 323 324 323 323 321 322 321 321 322 321 320 321 320 319 319 319 318 319 320 320 320 320 319 320 319 319 317 317 317 317 316 318 318 317 316 318 319 317 316 317 312 314 313 312 311 313 312 311 314 314 313 316 316 313 312 313 309 306 305 303 304 302 301 300 300 299 302 301 308 314 318 318 317 316 316 317 319
322 322 322 323 323 324 324 324 323 323 323 323 323 323 322 322 322 321 321 321 320 320 319 320 319 319 319 320 320 320 319 320 320 319 318 318 318 318 318 318 317 317 318 319 317 317 316 315 313 317 313 310 310 314 312 311 310 314 315 316 316 315 312 308 306 304 302 301 301 299 299 299 298 299 302 300 302 307 313 315 314 314 313 312 313
323 323 322 322 323 323 323 324 323 323 323 323 323 323 322 322 322 322 322 321 320 320 320 320 319 319 319 320 320 321 320 321 320 320 320 319 318 318 319 319 318 318 318 318 317 318 317 317 314 316 317 311 310 310 311 311 314 312 310 313 315 313 308 306 305 304 302 299 297 297 298 297 298 304 299 300 300 300 309 313 313 312 312 311 310
324 323 323 323 323 323 323 324 324 324 324 324 323 323 323 323 322 322 320 321 321 320 320 320 321 320 321 320 321 321 320 321 321 321 320 320 320 319 319 319 318 319 319 317 318 317 315 317 315 311 313 313 311 313 311 310 311 311 308 309 311 310 307 304 302 300 299 297 297 297 297 297 297 296 298 298 298 298 298 305 309 310 311 311 308
326 324 324 324 323 323 323 322 323 323 323 324 323 323 322 322 322 322 320 321 321 321 320 320 322 321 321 322 321 321 320 321 322 322 321 320 320 320 320 319 319 319 319 317 317 314 314 314 316 313 311 313 314 312 313 311 309 309 310 310 309 307 305 302 300 297 297 297 297 297 297 296 297 296 296 296 295 294 294 294 297 299 304 308 306
326 325 323 324 323 323 322 322 322 323 324 323 322 322 321 320 320 319 319 320 321 320 321 321 322 321 321 323 322 322 321 321 322 322 322 321 320 320 320 319 319 319 318 317 316 314 314 313 313 315 313 311 311 311 310 310 306 306 307 310 308 307 304 302 299 297 297 296 297 296 297 295 295 295 295 295 294 293 293 293 296 297 300 304 303
326 326 324 324 324 323 322 321 322 323 323 322 322 321 320 320 320 320 320 321 321 321 321 321 321 322 321 322 323 323 323 322 322 323 323 321 321 321 320 319 319 319 319 318 317 316 316 316 315 312 314 311 311 308 308 310 309 307 307 305 307 307 305 302 298 297 297 296 295 294 293 294 293 295 294 294 293 292 292 293 293 295 295 295 297
324 326 325 325 324 324 323 323 322 322 323 323 322 322 322 322 321 321 321 321 321 320 320 321 321 321 321 321 323 323 324 323 322 324 323 323 322 321 320 320 319 319 319 319 317 314 315 314 313 312 311 314 312 312 312 311 305 305 304 305 307 307 303 300 298 297 296 295 293 292 291 294 293 293 293 294 293 293 293 292 293 294 294 294 293
324 325 326 326 325 324 324 323 323 322 323 323 322 322 322 322 322 320 321 319 321 322 322 321 321 320 321 320 321 324 324 323 323 322 324 324 323 323 321 321 319 319 318 317 316 314 315 315 314 317 312 310 312 310 312 311 305 304 303 305 304 304 305 303 301 298 297 294 291 290 291 293 294 293 293 293 292 292 293 292 294 295 293 292 291
323 324 325 325 326 324 324 324 323 322 322 323 321 323 322 322 322 319 319 319 318 318 319 317 319 320 319 320 320 322 323 323 323 323 323 324 324 323 323 321 320 319 319 318 316 316 315 316 315 315 316 314 314 313 312 309 304 307 304 303 300 301 297 302 298 297 294 293 290 290 291 293 292 291 291 294 292 291 291 292 294 293 293 291 290
322 323 324 325 326 325 325 324 324 323 323 322 321 322 321 320 319 316 315 316 316 317 317 318 318 319 319 319 319 321 323 323 323 323 322 324 324 324 323 322 321 319 319 319 318 317 317 317 317 315 315 317 313 311 311 309 307 311 306 299 297 296 297 296 296 295 295 291 291 290 290 290 291 292 292 292 291 291 292 292 292 292 291 290 289
322 323 325 326 326 326 326 325 325 324 324 323 322 322 320 321 319 319 318 317 317 317 317 318 318 318 319 320 319 320 322 323 324 324 324 323 324 324 324 322 321 320 319 320 319 317 317 317 317 317 315 315 316 311 311 308 308 309 306 304 302 297 295 295 298 294 295 291 290 290 289 290 289 291 292 292 291 290 291 292 292 291 290 289 288
322 323 324 325 326 326 326 326 326 325 325 325 324 322 322 321 321 321 320 319 318 319 320 320 320 320 321 321 321 321 322 323 323 324 324 323 324 325 324 323 322 321 319 319 318 318 318 318 317 316 317 315 313 312 312 312 306 308 305 303 302 296 297 299 298 290 290 294 291 290 290 290 290 289 292 292 291 290 290 291 292 291 289 288 287
322 323 323 324 324 325 325 325 326 325 326 326 325 324 324 323 322 321 321 321 320 320 320 321 321 321 321 321 323 323 322 323 323 324 324 324 324 325 324 323 322 321 318 319 320 318 318 318 317 318 317 316 315 314 312 311 311 309 304 303 298 296 296 294 293 294 292 291 292 291 291 290 291 289 291 291 290 290 290 290 291 290 288 287 287
322 322 323 323 324 325 324 324 325 325 325 325 325 325 324 325 324 323 322 322 322 321 320 320 321 321 322 322 323 324 323 323 324 324 324 325 322 324 324 323 323 321 316 319 319 319 318 318 316 316 317 316 316 316 313 312 311 310 303 302 298 298 293 295 292 291 290 290 290 289 289 290 290 290 289 289 289 290 291 290 290 289 288 287 286
322 322 322 323 323 323 322 322 323 324 325 326 325 325 325 324 325 325 324 324 323 323 321 321 321 321 322 322 323 323 324 323 324 324 324 325 324 323 324 323 323 322 317 319 319 319 318 318 318 318 318 316 315 314 314 312 312 312 309 307 305 296 295 293 291 292 289 292 291 291 290 289 288 289 289 288 288 289 290 290 290 288 287 286 286
321 321 321 321 322 322 322 321 323 324 324 325 325 325 325 325 325 325 325 325 325 324 323 322 322 322 322 322 323 323 324 324 324 324 324 325 325 323 323 323 323 321 318 319 319 319 319 318 318 318 317 317 315 314 312 313 311 310 307 307 307 304 302 298 295 292 293 289 290 291 291 289 287 287 289 288 288 288 290 290 289 287 286 286 285
Wind_Speed
3 4 2 6 9 11 11 12 12 13 13 13 13 13 13 14 14 13 13 13 12 15 16 15 15 14 15 15 16 17 16 15 15 15 16 17 16 14 15 15 15 15 15 15 16 17 16 16 16 15 14 15 15 15 15 16 16 16 16 15 16 16 16 17 16 16 15 16 16 15 15 16 17 17 17 17 18 17 13 14 12 5 6 11 15
6 3 3 4 10 11 11 11 12 13 13 13 13 12 12 13 13 12 13 13 13 12 13 14 15 15 14 14 16 16 15 15 15 16 18 17 16 15 15 16 15 16 16 16 16 16 16 15 15 15 14 14 14 15 15 15 16 16 16 15 15 16 17 17 17 16 15 16 15 14 16 18 17 17 17 17 17 18 13 14 14 6 4 13 15
5 4 3 5 9 10 11 11 12 12 13 13 13 11 13 13 12 12 12 13 13 12 10 14 16 15 13 14 14 14 14 14 15 16 17 17 16 15 15 16 16 16 16 17 16 16 16 16 15 15 14 14 14 14 14 15 15 15 16 16 17 16 16 16 16 16 15 14 13 11 10 13 19 17 16 17 17 17 15 14 13 13 9 16 16
7 3 3 5 9 9 11 12 12 12 13 13 12 12 12 12 12 13 12 12 13 13 12 12 14 13 15 15 15 15 15 16 16 16 17 17 16 16 15 15 15 16 16 16 16 16 16 15 15 15 14 14 14 14 14 14 15 15 15 16 16 16 15 15 14 13 11 10 10 7 4 4 8 17 17 17 17 18 13 17 17 16 16 15 17
7 4 3 4 5 8 11 10 12 12 13 13 12 12 12 11 13 13 12 12 13 13 13 13 14 14 14 15 15 15 14 14 15 16 17 16 16 16 15 15 15 15 16 16 16 16 16 16 15 15 14 14 14 14 14 15 15 15 15 15 16 16 15 14 14 12 10 10 9 6 5 6 5 14 16 18 17 13 12 17 16 16 14 14 16
6 4 4 4 4 6 9 11 12 12 12 12 11 12 11 12 12 11 11 12 13 14 12 12 14 14 14 15 15 15 15 14 14 14 14 14 14 15 16 16 16 16 16 16 16 16 16 15 14 15 14 14 14 14 15 15 16 15 15 15 15 15 14 13 12 11 10 10 8 5 6 5 5 4 17 16 17 13 15 17 16 15 16 16 13
8 4 4 5 5 6 9 11 12 12 12 12 11 11 13 12 12 12 12 12 13 14 13 13 14 15 15 15 15 15 15 15 14 13 13 13 14 14 16 16 16 16 16 15 16 16 15 15 14 14 14 14 14 14 14 15 15 15 14 14 13 14 15 13 11 10 9 6 5 4 5 5 4 2 15 15 14 15 15 15 15 16 15 14 12
5 5 4 4 4 7 9 10 11 11 12 12 11 11 12 13 12 12 13 13 13 13 13 13 13 14 15 16 15 14 14 14 14 13 13 14 14 15 15 16 16 15 15 16 15 15 15 14 14 14 13 13 13 14 14 14 15 14 14 14 14 13 13 13 12 11 10 4 4 5 6 5 5 3 11 12 12 13 12 12 13 14 12 11 6
6 5 4 4 4 9 9 9 11 12 12 12 12 12 12 13 12 13 13 12 12 13 13 13 13 13 15 14 14 13 14 14 13 13 13 13 14 15 14 15 17 16 16 15 15 15 14 14 14 13 13 13 13 13 14 14 14 14 14 13 12 12 13 13 12 10 6 4 4 4 4 5 5 5 7 10 11 11 9 6 7 9 10 8 10
6 5 5 4 5 9 8 9 11 11 12 11 10 14 13 13 13 12 12 12 11 12 13 12 14 13 13 14 14 13 15 15 13 12 12 12 13 14 14 15 15 16 15 15 15 15 14 13 13 13 12 12 12 13 13 14 14 14 13 12 11 11 12 11 11 7 4 4 5 4 4 6 3 2 8 12 11 10 7 7 5 7 6 6 10
7 6 4 5 5 8 9 9 9 10 11 11 10 12 12 11 11 11 10 10 13 13 12 13 13 13 13 13 13 13 13 13 13 12 12 12 13 14 15 15 15 15 15 15 14 14 14 13 12 12 12 12 11 11 12 13 13 13 13 11 10 11 12 10 8 5 4 4 4 4 5 8 3 1 11 10 10 10 8 8 11 12 10 9 10
7 6 5 5 9 9 8 7 9 9 11 11 10 11 11 11 11 11 10 10 10 12 13 14 14 13 13 13 13 13 12 13 13 12 12 12 12 14 14 14 14 15 13 12 12 13 13 13 12 11 11 11 10 11 11 12 12 12 12 11 10 11 11 10 6 5 4 5 5 4 4 4 5 5 12 11 11 9 9 10 11 11 11 10 10
7 7 6 5 5 9 8 7 8 9 9 10 10 10 11 10 10 10 8 11 12 12 13 13 14 13 13 13 13 13 12 12 13 13 13 12 12 13 13 14 14 14 14 13 12 12 12 12 11 10 10 9 9 9 9 10 10 11 11 10 10 10 9 8 4 5 4 4 4 4 4 4 4 9 11 11 10 10 10 10 11 10 9 10 11
9 6 6 6 6 10 7 6 7 7 7 8 9 9 10 10 10 10 11 11 11 12 14 13 13 13 13 13 13 13 12 11 11 11 12 12 12 13 13 14 13 13 13 12 12 11 11 11 10 9 8 8 7 7 8 8 9 10 10 10 9 10 8 6 4 4 4 4 3 4 4 4 4 10 10 10 10 10 11 11 11 11 10 10 11
10 9 7 6 6 6 7 7 6 6 7 8 8 7 8 10 11 11 11 12 12 12 13 12 12 13 12 12 12 11 11 11 11 11 11 11 12 12 12 12 12 12 11 11 11 10 10 9 8 8 7 6 6 6 7 8 8 9 8 8 8 9 7 4 3 3 3 3 2 3 4 4 8 9 9 10 10 10 11 11 11 11 11 11 11
11 10 7 5 6 6 5 6 8 7 7 6 5 5 9 12 11 12 11 11 12 11 12 11 11 11 11 11 12 11 10 10 10 11 10 9 10 10 11 11 11 11 10 10 9 9 8 8 7 6 5 4 4 6 7 7 7 7 7 7 6 8 6 4 3 3 2 2 3 3 3 4 10 9 10 10 10 11 11 11 11 11 11 11 13
10 8 8 6 5 5 5 5 7 9 6 6 6 7 11 11 11 11 9 9 10 10 11 10 10 11 12 12 11 11 10 10 9 10 9 9 9 9 9 10 10 10 9 9 9 8 8 7 6 5 4 3 3 4 4 5 5 5 6 6 6 8 3 5 3 2 3 3 3 4 5 4 7 9 9 11 9 10 11 11 11 10 11 14 14
9 8 8 6 5 5 5 5 6 6 4 5 7 9 10 11 10 9 8 8 8 8 8 9 10 11 11 11 11 11 11 10 11 10 9 8 8 9 10 10 9 9 8 7 7 7 7 6 5 3 2 1 2 4 5 6 7 7 7 7 7 9 5 5 3 2 3 3 4 3 5 5 8 8 10 10 10 11 11 11 11 11 14 14 13
7 8 7 7 5 5 5 5 5 6 6 5 4 6 9 10 10 9 9 9 8 8 9 10 10 9 9 10 10 10 11 11 10 9 9 8 9 8 8 8 8 7 7 7 7 7 6 5 4 2 1 2 3 5 6 7 7 7 7 8 8 7 5 4 3 2 3 4 4 4 4 7 7 8 10 9 10 11 11 11 11 13 12 13 13
6 7 7 6 6 6 4 5 5 6 6 5 4 4 8 10 10 10 10 10 10 11 11 10 9 9 9 9 10 9 8 7 8 7 8 8 7 6 7 7 7 7 7 7 6 6 5 4 3 1 1 2 5 6 6 5 6 6 6 6 7 6 3 3 3 3 3 3 3 4 5 8 7 7 9 10 12 12 12 11 13 13 12 12 13
4 6 7 6 6 7 6 5 4 6 6 6 5 4 6 9 8 10 10 10 10 11 12 11 9 9 8 8 8 5 5 5 5 5 6 5 6 6 6 6 7 6 6 6 5 5 4 3 2 1 1 2 4 4 4 6 7 6 5 5 5 4 2 4 3 2 3 3 3 3 7 7 8 8 10 12 13 12 11 11 13 13 12 13 14
6 6 6 7 7 6 7 6 5 6 7 6 4 4 5 7 6 5 5 7 8 9 8 7 6 5 7 6 4 4 4 4 5 6 4 4 5 6 5 4 4 3 4 4 4 3 2 3 2 2 3 2 3 3 3 5 6 6 5 4 2 3 2 3 3 3 3 3 3 5 7 8 9 10 10 12 12 11 10 11 12 13 13 13 14
7 7 6 8 7 7 6 7 6 6 7 6 5 4 5 5 6 6 5 5 6 6 5 7 5 5 4 3 4 4 4 5 5 4 4 4 4 3 3 3 3 2 2 0 2 2 2 2 3 3 2 2 2 2 3 4 3 4 4 2 1 3 3 4 3 3 3 2 3 6 7 9 8 9 10 11 11 9 10 11 12 12 12 13 15
8 8 7 7 8 8 8 7 8 7 7 6 6 5 4 4 5 5 5 5 5 5 4 4 6 4 4 4 3 3 3 3 5 8 7 4 3 2 1 2 2 2 3 4 4 3 4 5 5 4 3 2 2 3 3 3 2 2 0 0 0 4 5 3 3 3 3 3 3 6 8 9 8 8 9 11 10 8 11 11 12 13 13 13 15
7 7 7 8 9 9 8 7 7 8 7 6 7 6 5 4 5 6 5 5 4 5 5 4 4 5 4 5 3 3 3 3 4 3 3 3 2 2 1 1 1 1 1 2 2 2 2 2 3 3 3 2 2 4 3 4 1 1 1 0 0 4 5 3 4 3 3 2 3 7 9 9 8 7 9 10 8 9 10 12 12 12 13 14 15
5 8 9 8 9 9 9 8 7 7 7 7 7 7 7 5 5 5 5 5 5 4 5 5 5 5 4 4 4 4 3 2 2 3 3 3 3 2 2 2 2 2 2 2 2 2 3 3 3 3 3 3 3 3 4 5 4 3 1 1 2 4 5 4 3 4 2 3 3 8 9 9 8 8 9 8 9 9 10 10 11 13 12 13 14
7 7 8 8 9 9 9 9 9 8 8 7 7 7 7 7 6 5 5 4 4 4 5 5 5 4 4 4 5 4 3 3 3 3 3 3 3 3 2 3 3 3 3 3 3 3 3 3 2 3 3 3 2 3 4 3 1 2 1 0 1 4 5 3 3 3 2 3 4 9 9 8 8 8 8 8 9 9 10 10 12 13 13 14 14
6 6 8 8 9 11 10 10 10 10 8 7 7 6 6 7 7 6 6 6 5 5 5 5 4 3 4 5 5 5 6 4 4 4 4 3 3 3 2 2 3 4 3 3 3 3 3 3 2 3 4 2 2 1 1 1 2 3 3 1 1 5 4 4 4 3 2 3 3 7 9 7 7 8 8 8 9 10 11 11 12 13 14 13 13
9 8 8 9 10 10 9 10 10 11 9 8 8 7 6 7 6 6 6 5 6 5 5 4 5 3 4 4 5 5 5 5 5 5 4 5 4 4 3 4 4 5 3 4 4 4 4 2 3 3 1 3 1 0 1 0 1 2 2 1 1 4 5 4 3 3 3 3 4 5 8 8 8 8 7 7 9 11 11 12 13 12 12 13 13
11 10 8 9 9 9 10 11 11 10 9 8 7 7 7 7 7 7 7 6 6 6 5 5 5 5 5 4 5 6 6 6 6 6 6 5 5 4 5 5 5 5 4 5 5 3 3 3 3 3 3 2 1 1 1 3 3 2 2 1 2 4 4 5 4 4 3 3 3 4 7 7 7 7 7 9 9 9 10 12 13 12 12 12 13
10 10 10 9 8 8 9 10 11 10 8 9 7 8 8 8 8 7 7 7 7 7 6 6 6 6 6 5 5 6 6 6 5 6 5 6 5 5 6 6 6 6 6 6 3 5 4 5 5 5 3 0 2 0 1 2 3 3 1 2 4 3 4 4 4 4 4 4 3 3 4 8 6 6 8 9 9 9 10 12 13 12 12 12 13
12 13 10 9 9 10 10 10 11 10 10 9 7 7 8 8 8 7 8 8 7 7 7 7 6 6 5 6 5 5 5 5 5 5 5 6 5 5 5 5 6 6 6 6 5 5 5 5 4 3 2 1 0 0 1 1 2 4 2 1 3 5 5 3 4 4 4 3 4 3 5 5 7 7 6 8 10 10 11 12 13 13 12 12 13
10 12 11 10 11 11 10 11 11 11 11 11 9 8 7 7 8 8 7 8 8 7 7 7 7 7 6 6 6 5 5 6 6 6 6 6 6 5 5 6 6 6 5 5 5 4 4 3 3 1 1 0 1 3 0 1 4 3 0 2 4 3 3 4 4 5 4 3 5 4 4 4 4 7 7 7 9 12 12 12 12 12 12 12 13
10 9 10 12 11 8 8 8 10 12 12 10 9 8 7 7 6 7 7 7 6 7 7 7 7 7 7 7 7 6 6 6 6 6 6 6 6 6 6 6 6 5 5 5 6 5 6 4 4 2 3 2 3 3 1 1 0 0 2 3 4 4 3 5 5 5 4 4 4 3 3 4 4 4 4 7 8 9 12 13 12 12 12 12 13
8 9 13 14 12 10 9 8 10 12 11 10 11 10 8 8 7 6 7 7 6 6 6 7 7 7 7 7 8 7 7 7 6 7 7 6 6 7 6 7 6 5 5 6 7 7 5 5 3 2 0 1 2 1 2 3 1 2 1 4 4 3 2 5 4 4 4 4 4 3 3 3 3 4 4 4 7 9 10 12 13 13 13 13 13
12 12 11 11 12 11 11 10 11 12 11 12 11 10 10 9 8 8 7 7 7 7 7 6 6 6 7 7 8 8 7 7 7 7 7 7 7 7 7 7 6 5 6 6 6 5 5 4 3 3 3 2 2 1 2 2 2 2 1 5 4 3 4 4 4 4 3 4 4 4 3 3 3 3 4 4 4 5 8 9 11 12 13 13 13
10 11 12 11 12 12 12 12 13 13 12 12 10 8 8 9 9 9 9 8 8 8 7 6 6 7 7 7 8 9 8 8 8 8 8 8 8 7 7 7 6 6 6 7 6 6 5 4 3 5 5 5 4 4 1 1 4 2 1 3 5 5 5 5 5 5 3 4 4 4 3 3 3 4 3 3 3 3 6 8 9 10 10 12 14
10 11 12 13 13 12 11 12 11 12 11 11 10 9 9 9 8 9 8 9 9 8 7 7 7 8 8 8 9 9 9 9 8 8 8 8 8 8 7 7 6 7 7 6 7 5 5 5 5 4 5 5 4 6 3 2 2 3 2 3 4 4 5 4 4 4 5 4 4 4 4 3 3 3 3 3 3 3 3 5 7 7 9 10 14
10 11 11 11 10 10 9 11 11 11 10 9 9 7 6 5 5 7 7 8 7 7 7 8 9 9 9 9 10 10 10 10 9 8 8 8 7 8 7 7 7 7 7 7 6 5 4 4 6 4 2 4 7 6 6 5 2 3 3 3 3 3 3 3 4 4 4 4 4 4 3 3 3 3 4 3 2 3 4 4 5 5 6 13 14
11 11 11 11 11 10 9 10 10 10 9 8 7 7 6 7 8 6 6 7 8 9 9 10 9 8 9 9 10 10 9 9 9 8 8 8 7 8 8 7 7 7 7 7 6 6 6 5 5 6 4 1 1 5 5 5 4 4 2 1 2 0 3 4 3 4 4 4 4 3 4 1 3 3 4 3 3 3 4 4 4 5 5 9 15
12 12 12 13 13 13 11 13 11 10 10 9 9 9 9 8 8 10 11 11 11 10 9 9 9 10 10 10 10 9 10 10 9 8 8 8 8 7 8 7 6 7 7 8 7 7 7 8 7 4 7 4 2 2 3 5 5 3 4 2 3 2 1 0 3 4 4 4 3 4 3 3 3 4 4 4 4 4 4 4 4 4 5 6 7
14 14 15 15 14 14 15 14 10 11 11 11 10 10 10 11 10 11 9 9 9 9 10 10 11 9 10 9 9 9 10 9 9 9 8 8 8 7 7 7 6 7 7 7 6 6 6 5 5 3 1 5 5 5 5 6 0 4 4 0 1 1 2 1 1 1 2 3 3 4 4 4 4 3 2 4 3 3 3 4 4 5 5 6 6
15 15 15 14 14 15 14 13 12 12 12 12 11 11 9 8 8 5 7 6 5 6 6 6 7 9 10 10 9 9 9 8 9 9 8 8 8 8 7 6 6 6 6 6 6 6 6 7 6 7 3 1 2 3 6 6 5 4 3 5 2 2 1 0 0 0 0 0 2 4 4 5 5 4 3 4 3 2 1 3 5 5 5 6 6
12 13 14 16 14 14 14 13 13 13 12 12 12 10 9 8 6 5 5 5 5 4 4 4 6 8 9 8 9 9 8 9 8 9 8 8 8 8 7 6 7 6 7 8 7 7 6 6 6 6 6 4 3 4 5 6 5 8 3 3 3 4 2 7 4 1 1 0 2 4 3 5 4 3 3 5 4 3 2 4 5 5 5 5 5
13 14 15 15 13 16 15 14 12 13 11 11 12 10 8 6 6 4 3 4 3 4 5 8 8 8 8 9 10 9 10 10 10 10 10 10 9 8 8 8 7 7 7 8 8 9 8 8 9 7 7 7 6 4 5 5 5 6 8 5 2 1 5 3 4 3 1 1 1 1 2 4 5 5 5 4 3 3 5 5 5 5 5 6 5
14 15 15 16 15 13 13 13 11 11 12 12 12 10 10 10 9 9 9 9 10 9 12 14 11 11 13 9 8 11 11 11 11 11 11 10 10 11 9 9 8 8 8 8 7 6 7 7 9 9 8 6 7 5 5 4 5 6 4 3 6 5 5 3 6 5 0 2 2 1 3 3 3 5 4 5 4 3 4 6 5 6 5 5 5
16 14 13 14 14 13 13 14 13 11 12 11 12 11 10 11 13 13 12 12 12 11 10 8 10 10 8 10 11 10 12 12 12 11 11 11 11 11 10 10 10 9 8 8 8 9 8 9 7 7 8 7 6 7 8 7 3 5 5 3 1 1 5 7 7 3 3 3 2 3 3 3 2 4 5 5 4 4 3 5 6 6 5 5 4
16 14 14 12 13 15 14 15 12 11 11 11 12 13 13 12 12 13 12 13 13 12 9 9 8 7 9 11 9 10 11 11 12 12 12 12 11 11 11 10 10 10 9 9 10 8 7 7 8 9 8 8 9 9 7 7 9 6 5 4 2 2 3 2 3 7 5 7 5 2 1 3 1 3 5 6 5 6 5 4 6 6 5 4 4
14 14 15 15 15 13 12 11 12 12 11 13 13 13 13 13 13 12 13 12 12 10 6 6 7 7 9 8 9 9 9 11 12 11 11 12 11 11 11 11 11 10 8 9 8 8 10 9 8 8 8 7 8 8 8 9 8 8 5 4 3 4 2 2 3 3 3 5 3 6 4 0 1 3 4 4 4 4 6 5 5 5 5 5 4
15 14 14 12 11 11 12 12 14 12 12 13 14 15 15 12 13 14 16 13 10 9 7 8 8 7 10 10 9 9 9 9 10 10 11 12 11 11 11 12 12 10 9 10 9 9 9 9 10 10 10 10 7 8 9 8 9 8 8 8 8 3 3 2 3 4 2 3 6 9 7 8 8 5 3 4 4 3 4 6 5 4 4 5 4
12 11 11 11 11 11 13 14 16 13 12 14 15 16 15 14 15 15 16 15 12 11 10 11 9 8 11 11 11 11 9 10 9 10 11 11 12 11 12 11 10 10 10 10 10 10 9 9 9 9 10 11 9 9 9 8 9 9 8 7 9 9 9 7 7 5 6 4 2 5 5 7 6 5 5 4 4 3 4 6 6 4 3 4 4
Wind_Direction
170 162 187 152 142 138 134 129 125 123 118 114 111 110 109 111 107 103 105 104 106 111 112 113 110 99 86 84 83 83 85 90 92 93 95 93 93 94 98 97 94 89 88 86 86 86 85 82 77 74 73 73 73 72 69 65 62 63 66 78 83 76 73 72 71 71 74 78 77 71 69 71 66 63 61 62 61 58 53 49 42 35 60 50 38
161 165 161 152 147 141 135 131 126 124 121 115 112 113 113 104 103 106 111 111 111 115 120 113 110 104 97 94 90 91 90 89 86 88 94 95 94 93 92 92 91 90 88 86 83 86 86 84 81 78 78 76 74 71 66 62 59 59 62 73 90 84 77 76 75 73 68 67 59 58 66 68 64 62 61 59 57 56 53 52 41 34 50 52 47
129 138 157 143 141 138 138 133 128 125 119 115 115 115 110 104 108 111 106 105 109 116 121 120 112 109 107 101 101 100 97 96 101 103 99 100 98 95 95 95 93 91 87 86 86 85 85 84 83 80 80 78 76 72 66 61 59 58 63 73 86 91 84 83 81 78 72 60 52 41 20 53 63 57 60 60 60 54 51 53 55 53 48 45 53
130 142 140 143 139 138 137 136 134 124 118 118 120 117 112 117 114 110 107 111 109 111 120 128 123 114 106 108 104 101 102 107 105 104 104 104 102 99 98 97 95 94 95 93 89 86 84 83 81 82 81 81 77 70 64 60 59 61 65 74 84 92 92 90 85 77 68 59 52 42 30 14 44 63 59 58 57 57 57 55 53 51 45 40 48
129 137 136 132 135 139 140 140 129 124 124 125 125 121 116 120 109 109 112 112 111 112 118 124 121 117 113 108 107 107 108 108 108 107 107 106 106 106 104 101 99 97 93 92 90 87 84 84 82 83 83 80 74 68 63 59 58 63 70 76 82 91 96 93 88 81 70 58 42 29 22 25 13 63 59 60 57 58 51 55 58 55 50 45 45
137 136 130 126 128 134 141 137 129 126 127 127 122 120 124 113 110 113 117 114 113 114 114 120 120 116 113 112 112 111 110 108 109 107 105 107 111 114 112 109 106 102 97 94 92 91 88 84 83 84 84 79 72 65 61 58 59 67 73 77 81 84 94 96 92 83 69 53 35 23 7 11 16 37 58 61 58 53 54 53 55 58 52 50 51
137 133 128 130 133 144 147 137 131 129 130 126 122 122 116 115 115 117 114 115 114 116 114 114 117 115 115 115 113 111 108 107 108 109 110 113 111 110 110 110 106 101 98 93 89 86 85 85 84 83 83 75 65 61 59 58 60 65 69 66 64 70 77 83 81 74 68 57 49 30 19 23 15 330 58 56 58 53 50 51 52 49 50 59 48
122 126 130 133 136 146 144 142 135 133 132 128 128 126 122 118 118 117 118 117 118 119 121 122 124 122 117 113 116 116 112 109 110 111 110 109 114 116 114 109 102 98 94 92 91 87 82 80 80 81 78 69 62 58 57 58 58 59 60 62 60 62 71 74 71 68 63 54 52 40 31 27 17 336 59 54 58 55 53 47 46 51 46 44 66
133 132 129 131 141 143 148 143 139 137 133 132 135 133 124 119 123 125 123 122 126 122 122 125 125 124 123 120 117 114 113 109 106 103 103 105 110 107 104 103 104 102 101 100 95 89 84 80 78 79 73 62 57 53 54 55 56 55 54 54 58 61 68 70 64 58 50 42 33 32 39 31 10 355 46 55 62 56 53 54 36 33 43 32 25
136 130 136 135 141 145 149 147 144 139 134 130 131 133 127 127 127 127 125 129 128 128 129 130 130 125 124 119 117 116 114 114 109 105 106 108 105 106 106 108 102 102 100 97 97 95 89 84 79 75 69 60 52 51 51 52 52 51 50 49 55 63 68 73 73 64 56 47 39 22 24 46 14 349 31 43 58 59 38 20 34 33 39 23 36
133 134 134 140 148 149 152 150 148 142 137 134 135 135 132 130 131 127 130 139 140 137 131 126 127 125 122 115 113 108 104 105 110 111 105 105 110 107 103 100 100 99 99 97 94 91 89 85 81 75 69 61 52 49 49 52 53 52 51 53 51 56 67 71 64 52 45 42 41 21 6 20 8 303 42 47 48 51 47 30 37 40 30 31 38
136 137 138 145 154 149 156 155 154 144 144 142 141 140 134 137 137 134 139 140 131 123 125 125 121 119 122 122 119 114 113 110 107 111 111 105 104 103 101 99 100 99 98 100 99 98 94 87 82 77 70 62 54 51 50 52 52 53 55 55 51 52 55 68 73 62 49 33 27 14 9 3 346 24 38 40 50 49 48 47 50 41 33 29 35
140 143 145 146 148 150 153 152 149 151 152 144 142 142 140 141 135 135 139 131 129 124 124 125 124 125 124 122 123 124 124 119 109 110 107 109 108 106 102 101 99 97 96 97 98 94 93 86 81 76 71 64 56 51 50 52 53 55 56 53 49 51 60 57 68 73 62 45 29 11 8 352 339 15 37 44 46 53 52 47 50 52 47 35 43
144 143 147 147 150 148 143 138 146 154 146 138 142 147 145 142 142 135 125 119 126 131 128 127 123 122 122 124 124 128 128 122 116 111 110 112 109 106 103 102 98 97 98 94 91 91 92 90 85 79 71 64 59 54 52 52 55 52 51 50 44 46 57 66 69 66 60 53 37 20 11 345 331 9 21 37 44 49 47 43 37 39 36 31 29
146 151 150 150 149 143 139 134 137 130 131 137 146 152 149 128 120 123 131 130 132 133 128 126 125 122 122 125 125 126 124 118 107 107 108 110 110 107 107 105 103 102 100 96 96 94 93 93 88 80 73 68 61 56 52 48 43 42 39 42 51 48 59 89 78 74 65 45 30 31 1 343 352 7 15 32 38 41 43 41 35 29 30 27 26
147 151 149 148 147 140 133 134 131 125 128 136 141 139 127 125 126 129 137 136 134 133 128 126 128 130 131 125 121 116 114 118 117 113 115 118 114 115 113 111 108 103 97 97 94 95 95 94 91 85 81 78 70 54 44 42 35 33 29 20 29 59 61 92 94 84 69 32 16 25 354 347 347 14 13 27 33 41 41 40 37 30 28 28 28
147 145 144 147 145 135 132 132 130 115 109 116 111 117 125 128 131 133 142 134 135 137 133 132 131 131 120 113 106 108 113 118 120 119 113 118 120 116 115 116 115 112 110 107 106 103 103 99 95 95 93 91 76 62 47 35 23 12 10 11 11 50 65 97 81 66 61 39 25 7 351 337 349 19 19 32 39 43 44 38 37 35 35 37 36
146 146 145 148 142 134 131 133 129 116 112 110 117 126 127 131 131 132 133 126 133 134 133 129 118 112 113 111 107 103 101 91 83 88 97 88 100 113 120 113 114 111 108 104 108 107 104 104 104 107 116 86 47 42 25 9 6 357 354 352 5 25 51 87 74 12 27 38 14 357 351 341 3 15 29 35 42 46 46 39 36 40 42 45 44
143 148 148 149 147 136 140 142 131 125 122 117 115 128 127 131 132 132 129 133 132 119 108 109 117 114 107 102 103 98 98 91 84 79 84 80 79 84 109 114 119 119 122 121 116 118 114 115 117 124 104 37 17 18 11 2 354 350 350 353 0 21 48 92 83 33 31 29 8 2 345 352 16 23 36 47 53 50 46 42 44 50 52 51 47
151 152 156 159 151 145 149 147 138 134 131 127 126 124 130 133 134 134 132 131 130 127 123 119 118 114 113 113 116 111 103 90 89 81 85 82 92 108 112 122 134 135 134 129 126 125 129 126 139 145 357 15 23 11 353 342 345 338 342 348 354 25 50 79 80 50 30 19 10 2 345 349 31 34 48 54 57 53 51 50 56 58 55 54 56
158 165 163 165 161 155 157 149 152 142 135 133 134 130 133 130 134 137 137 135 136 136 131 126 123 123 123 126 124 120 119 117 101 104 88 76 83 91 105 125 137 136 134 135 139 137 139 147 155 224 308 359 28 347 328 328 324 316 317 340 357 49 65 99 81 57 39 19 10 349 346 338 43 47 53 56 56 54 51 53 56 61 57 57 63
170 169 176 170 166 168 161 158 153 150 141 137 137 139 139 129 129 132 135 140 137 133 136 136 141 138 138 141 135 137 130 125 127 127 115 106 80 84 93 90 99 96 134 144 147 157 170 179 202 258 286 17 7 342 329 322 314 313 313 338 20 65 60 101 90 60 45 20 3 350 353 10 48 51 56 57 55 52 55 57 59 58 59 62 66
178 178 184 177 173 170 171 163 162 160 148 141 142 147 143 139 139 143 145 148 147 146 155 142 154 152 155 144 147 142 140 141 144 149 141 118 110 95 77 96 100 87 15 88 197 209 220 245 259 273 293 355 3 310 324 307 316 333 343 358 22 88 94 97 89 64 53 24 6 1 13 22 40 51 58 60 57 53 59 62 64 64 66 67 72
181 182 180 181 178 177 176 172 165 165 153 150 145 148 150 151 144 148 152 153 158 160 156 161 156 160 148 149 144 131 125 126 142 141 133 137 131 113 98 339 311 292 315 321 318 322 318 307 308 290 325 356 315 293 290 293 305 320 353 349 266 93 99 111 98 83 61 34 22 23 29 32 39 51 57 65 61 66 67 73 74 72 73 71 72
178 175 182 187 185 180 175 177 170 167 161 155 152 157 156 160 154 154 161 160 167 169 166 171 168 161 159 161 152 131 133 142 148 147 152 143 148 182 207 218 232 251 251 260 293 297 325 285 305 318 282 263 246 257 245 249 243 255 262 231 352 83 96 104 106 89 73 47 39 44 39 31 38 53 62 72 77 71 75 75 77 78 77 75 74
161 176 189 186 187 186 178 173 172 175 169 163 165 161 156 159 160 164 165 169 171 179 180 181 181 171 170 174 143 139 148 160 168 162 149 153 157 187 210 211 215 225 215 238 244 249 259 248 263 284 294 252 243 239 228 200 155 213 216 33 21 85 117 121 112 98 83 64 52 60 47 39 36 55 66 79 82 77 74 85 89 87 87 82 76
185 187 183 190 187 189 184 167 176 176 178 173 169 159 169 165 162 164 163 180 180 178 195 196 197 181 169 179 151 163 168 177 203 177 164 165 178 199 208 210 210 213 217 219 240 244 254 264 259 265 274 264 261 259 274 321 190 167 163 276 102 95 112 115 113 113 100 78 73 70 57 44 44 60 77 86 91 97 98 93 89 89 86 83 82
185 186 185 189 189 192 185 169 176 176 179 177 167 172 168 161 165 162 176 176 175 190 199 205 213 185 175 184 180 172 175 182 208 179 184 167 194 206 203 214 225 229 215 213 236 257 259 262 282 266 256 251 214 275 270 55 267 179 156 247 123 101 120 125 126 124 113 90 75 70 67 55 52 58 70 89 101 100 96 92 91 88 85 84 82
197 196 187 188 192 188 182 177 174 178 178 173 173 177 171 169 163 167 181 177 181 192 195 207 217 200 187 180 166 169 180 184 190 193 161 194 209 201 199 219 219 238 200 230 220 239 243 224 229 234 208 214 213 35 54 257 246 191 181 206 96 106 132 134 139 128 110 93 77 65 70 64 66 70 74 90 98 99 101 100 97 90 86 82 78
202 196 188 194 185 180 181 179 176 178 176 174 176 174 176 174 174 175 183 174 189 192 199 200 217 199 195 187 179 168 180 189 193 182 170 204 212 207 205 218 217 224 204 231 217 217 232 230 199 187 208 213 153 218 121 167 202 211 191 227 73 142 139 145 148 137 121 101 79 65 67 72 70 74 86 88 88 98 104 100 99 95 90 86 79
198 200 198 193 184 177 181 177 176 175 173 180 176 174 172 180 179 177 177 183 191 180 191 197 200 204 192 188 191 180 180 190 190 187 191 199 203 199 212 206 211 223 203 225 178 194 199 191 181 190 201 194 241 302 67 166 198 259 180 226 103 117 126 137 134 128 122 115 94 74 63 65 62 65 86 88 93 97 102 105 100 96 91 84 77
197 202 198 191 183 188 178 177 174 173 174 180 175 175 174 173 177 175 181 188 185 178 186 189 194 202 193 189 195 190 179 194 195 195 198 201 205 200 207 190 210 218 200 216 190 200 194 209 201 192 202 201 176 200 182 160 206 227 246 37 148 128 135 135 132 135 134 125 104 84 75 72 64 50 64 88 88 88 89 89 86 83 80 77 72
202 198 195 189 192 191 180 181 172 173 177 179 181 183 178 173 171 178 180 181 184 180 185 192 192 200 198 195 194 196 190 193 206 200 202 202 205 204 208 207 211 210 202 212 205 194 186 203 219 253 288 266 12 310 328 182 189 236 39 166 130 125 108 111 127 134 138 132 116 107 96 86 76 58 48 47 81 91 91 89 86 82 78 72 66
193 197 190 195 194 189 186 180 179 176 183 179 175 176 185 182 178 178 182 177 179 180 191 191 190 196 196 198 196 196 197 205 197 211 204 200 205 206 207 216 217 210 200 197 202 200 196 186 193 169 223 193 241 257 267 298 302 5 84 134 127 137 131 111 120 131 135 131 133 123 108 92 84 76 55 50 54 80 85 83 80 77 74 70 64
188 193 196 196 191 189 184 185 187 187 183 180 178 180 178 176 179 186 186 184 182 185 191 194 193 194 191 197 199 198 201 202 201 198 206 200 202 209 210 217 211 203 197 202 200 211 188 205 154 186 311 252 257 265 159 217 212 89 108 128 126 106 97 120 118 114 125 132 126 133 122 110 98 91 76 64 54 60 81 85 81 75 69 63 59
195 195 196 194 195 192 187 186 189 193 191 188 187 183 180 178 178 184 184 186 186 192 194 198 194 194 193 196 201 201 199 202 200 197 197 201 200 204 212 216 209 195 207 206 202 199 203 200 196 172 160 248 171 153 107 176 118 101 173 140 130 121 117 121 118 114 126 117 123 133 144 143 125 117 104 84 75 76 75 78 80 74 70 65 60
198 193 193 195 198 195 191 190 190 194 195 195 191 185 180 179 181 183 187 184 191 197 194 190 191 198 200 199 202 202 201 201 201 197 196 199 201 205 212 212 201 195 200 203 196 204 185 203 214 199 182 178 175 154 134 110 129 96 14 146 142 142 138 142 141 140 130 119 119 122 132 143 151 132 124 100 78 61 71 73 75 71 64 64 59
201 198 193 193 197 194 195 197 194 195 193 194 193 189 188 183 182 185 184 188 196 197 196 186 196 200 197 204 202 201 203 201 200 197 198 199 198 201 210 208 197 197 197 194 205 198 192 180 205 204 174 146 162 159 167 152 84 84 102 164 147 147 148 142 140 137 130 120 120 132 150 149 134 142 130 122 100 79 71 66 62 55 59 64 61
197 198 196 196 194 195 195 201 195 195 194 191 192 192 185 185 182 179 186 196 198 200 195 199 205 199 200 202 200 203 204 202 200 197 197 198 198 202 207 205 192 195 196 198 205 187 185 182 181 185 182 183 167 178 171 144 96 66 122 179 154 160 141 128 132 132 131 140 141 144 124 139 126 126 132 132 126 105 95 84 78 68 61 66 61
199 194 197 195 197 195 196 199 201 194 191 192 184 187 182 184 185 189 197 203 203 202 204 206 205 203 206 202 202 203 204 203 201 200 199 200 199 203 206 202 195 193 196 199 204 190 185 184 202 165 162 124 140 152 135 115 68 59 58 99 69 99 154 145 134 134 137 134 138 130 136 126 114 121 128 135 127 116 104 104 99 90 77 68 66
202 194 193 198 198 195 191 203 197 190 188 189 190 187 192 195 202 201 202 199 202 201 203 207 208 208 206 205 202 203 204 204 204 199 204 204 205 206 206 209 200 198 198 204 197 194 189 181 182 168 156 156 186 143 142 118 114 39 34 35 43 31 26 40 145 137 142 141 130 131 137 120 135 131 149 144 131 125 129 121 109 97 84 78 64
208 197 195 198 197 196 198 200 188 192 196 193 190 195 199 200 198 204 202 202 200 198 206 207 209 209 209 208 206 205 206 205 205 204 208 205 207 209 207 206 201 205 205 203 195 190 185 178 160 160 238 163 187 180 179 121 92 151 136 50 21 28 23 53 87 102 129 143 143 129 147 147 159 158 139 116 110 120 134 114 110 103 92 86 79
203 201 202 195 198 200 204 196 191 191 196 194 191 199 197 198 198 203 203 214 227 223 223 214 209 211 212 209 208 209 207 209 207 205 206 210 211 209 210 205 203 198 199 207 196 197 190 184 180 172 193 308 178 193 176 176 168 151 122 106 198 154 306 354 331 53 353 255 133 131 152 157 174 173 148 117 133 156 134 108 107 104 99 91 82
206 204 204 202 199 203 202 197 195 194 193 195 196 196 193 189 193 182 194 193 202 217 226 224 214 220 221 211 214 210 206 209 207 206 208 209 209 211 210 207 205 199 198 200 202 203 194 193 187 189 161 176 200 209 207 181 136 139 160 184 185 140 222 237 202 242 117 318 170 161 160 164 163 143 124 142 168 164 126 113 108 110 102 94 86
208 207 204 204 205 203 200 195 195 196 196 192 193 186 175 178 175 157 155 194 224 195 204 227 217 213 217 214 213 205 209 209 206 206 205 209 208 210 209 210 207 202 201 204 201 203 198 194 187 184 185 178 196 199 221 195 180 198 140 110 54 206 218 212 146 251 140 174 219 177 201 159 160 164 161 170 181 168 130 109 112 104 102 96 88
210 212 209 209 207 204 198 195 195 195 197 194 189 182 185 185 179 188 197 200 209 203 207 212 205 206 212 208 203 205 207 209 207 206 204 204 207 208 208 206 209 206 202 206 200 198 201 196 195 186 194 193 176 187 207 232 209 206 199 164 163 175 177 219 145 229 293 216 228 249 224 220 165 159 166 160 169 155 135 126 120 109 100 97 97
210 208 212 214 210 206 202 197 195 196 195 191 184 186 191 195 197 202 207 208 214 219 219 215 211 214 207 206 208 204 206 207 210 207 206 205 207 206 206 207 208 208 201 201 202 200 198 200 191 192 194 186 170 189 195 197 221 255 230 225 146 138 139 136 201 93 191 273 212 205 225 220 213 166 168 174 174 136 124 129 117 112 102 104 101
209 204 209 210 209 209 203 201 199 196 194 189 187 191 195 197 203 209 211 216 216 222 210 217 215 208 209 213 207 208 207 209 209 209 207 205 206 208 206 208 210 210 197 205 206 200 197 202 193 195 192 189 187 191 193 191 192 220 194 202 147 109 171 120 151 172 163 173 229 264 288 236 243 235 189 176 177 155 134 120 121 114 113 106 109
209 207 207 206 207 209 207 202 203 199 196 191 193 197 201 201 205 209 216 221 222 226 214 215 215 210 218 216 213 212 209 211 212 210 208 207 205 208 206 210 211 210 202 209 209 200 199 195 194 196 197 197 195 196 184 197 196 208 164 212 145 179 167 207 155 139 142 166 231 193 194 39 236 263 244 208 191 167 145 136 121 121 122 119 115
211 210 211 208 206 201 203 203 209 203 198 196 197 200 204 204 209 212 217 220 216 221 210 216 213 203 219 217 216 214 209 211 214 213 212 210 207 208 210 211 212 210 204 211 209 206 204 203 199 196 196 196 197 191 196 194 199 204 197 176 185 150 162 191 198 174 253 209 175 196 197 174 186 224 222 220 194 175 121 122 118 120 118 119 114
212 207 209 207 206 200 203 205 211 205 199 201 198 204 203 206 214 214 216 219 213 214 218 224 214 209 217 217 213 215 210 211 206 214 214 209 210 208 211 213 211 210 207 210 210 207 205 203 202 200 198 196 192 197 202 199 196 200 204 190 194 186 186 189 203 196 187 185 171 222 193 195 181 165 230 212 192 133 127 128 132 125 128 120 123